Tracking 28790 objects as of 19-Apr-2024
HD Live streaming from Space Station
objects crossing your sky now

FENGYUN 1C DEB

Track FENGYUN 1C DEB now!
10-day predictions


NORAD ID: 30916
Int'l Code: 1999-025AZE
Perigee: 833.6 km
Apogee: 934.3 km
Inclination: 99.1 °
Period: 102.5 minutes
Semi major axis: 7254 km
RCS: 0.0136 m2 (small)
Launch date: May 10, 1999
Source: People's Republic of China (PRC)
Launch site: Taiyaun Space Center, China (TSC)

Note: This is SATELLITE DEBRIS
Your satellite tracking list
Your tracking list is empty




NASA's NSSDC Master Catalog

Two Line Element Set (TLE):
1 30916U 99025AZE 24107.37408656  .00004324  00000-0  26586-2 0  9999
2 30916  99.0677 162.0001 0069425 145.6457 274.2530 14.04913788873575
Source of the keplerian elements: AFSPC